TimeCST,TemperatureF,Dew PointF,Humidity,Sea Level PressureIn,VisibilityMPH,Wind Direction,Wind SpeedMPH,Gust SpeedMPH,PrecipitationIn,Events,Conditions,WindDirDegrees,DateUTC
12:15 AM,15.8,10.4,79,30.11,10.0,WNW,12.7,-,N/A,Snow,Light Snow,290,2013-12-15 06:15:00
12:35 AM,15.8,12.2,86,30.10,-9999.0,WNW,13.8,-,N/A,Snow,Light Snow,290,2013-12-15 06:35:00
12:55 AM,15.8,10.4,79,30.10,10.0,WNW,15.0,-,N/A,Snow,Light Snow,290,2013-12-15 06:55:00
1:15 AM,15.8,10.4,79,30.10,10.0,WNW,11.5,20.7,N/A,Snow,Light Snow,290,2013-12-15 07:15:00
1:35 AM,15.8,10.4,79,30.11,10.0,WNW,20.7,-,N/A,,Overcast,290,2013-12-15 07:35:00
1:55 AM,15.8,10.4,79,30.11,10.0,WNW,15.0,-,N/A,,Overcast,290,2013-12-15 07:55:00
2:15 AM,15.8,10.4,79,30.11,10.0,WNW,11.5,-,N/A,,Overcast,300,2013-12-15 08:15:00
2:35 AM,15.8,10.4,79,30.11,10.0,NW,12.7,-,N/A,Snow,Light Snow,310,2013-12-15 08:35:00
2:55 AM,15.8,8.6,73,30.11,10.0,WNW,13.8,19.6,N/A,,Scattered Clouds,300,2013-12-15 08:55:00
3:15 AM,14.0,8.6,79,30.11,10.0,WNW,13.8,-,N/A,,Clear,300,2013-12-15 09:15:00
3:35 AM,14.0,6.8,73,30.10,10.0,WNW,11.5,19.6,N/A,,Clear,290,2013-12-15 09:35:00
3:55 AM,14.0,6.8,73,30.10,10.0,WNW,10.4,-,N/A,,Clear,290,2013-12-15 09:55:00
4:15 AM,12.2,6.8,79,30.10,10.0,WNW,11.5,-,N/A,,Clear,290,2013-12-15 10:15:00
4:35 AM,12.2,6.8,79,30.11,10.0,WNW,10.4,-,N/A,,Clear,290,2013-12-15 10:35:00
4:55 AM,12.2,5.0,73,30.12,10.0,NW,10.4,-,N/A,,Clear,310,2013-12-15 10:55:00
5:15 AM,12.2,3.2,67,30.12,10.0,WNW,11.5,19.6,N/A,,Clear,300,2013-12-15 11:15:00
5:35 AM,10.4,1.4,67,30.12,10.0,NW,9.2,-,N/A,,Scattered Clouds,310,2013-12-15 11:35:00
5:55 AM,10.4,3.2,73,30.13,10.0,NW,9.2,-,N/A,,Overcast,310,2013-12-15 11:55:00
6:15 AM,10.4,3.2,73,30.12,10.0,NW,10.4,-,N/A,,Overcast,310,2013-12-15 12:15:00
6:35 AM,12.2,3.2,67,30.13,10.0,WNW,11.5,-,N/A,,Overcast,290,2013-12-15 12:35:00
6:55 AM,12.2,3.2,67,30.14,10.0,WNW,12.7,-,N/A,,Overcast,300,2013-12-15 12:55:00
7:15 AM,12.2,3.2,67,30.13,10.0,WNW,11.5,-,N/A,,Overcast,290,2013-12-15 13:15:00
7:35 AM,12.2,3.2,67,30.13,10.0,WNW,15.0,-,N/A,,Overcast,290,2013-12-15 13:35:00
7:55 AM,12.2,3.2,67,30.13,10.0,WNW,12.7,-,N/A,,Overcast,300,2013-12-15 13:55:00
8:15 AM,12.2,3.2,67,30.13,10.0,WNW,10.4,-,N/A,,Overcast,300,2013-12-15 14:15:00
8:35 AM,12.2,3.2,67,30.14,10.0,WNW,10.4,-,N/A,,Overcast,290,2013-12-15 14:35:00
8:55 AM,12.2,3.2,67,30.15,10.0,WNW,10.4,-,N/A,,Overcast,290,2013-12-15 14:55:00
9:15 AM,12.2,3.2,67,30.14,10.0,West,9.2,-,N/A,,Overcast,280,2013-12-15 15:15:00
9:35 AM,14.0,5.0,67,30.15,10.0,WNW,8.1,-,N/A,,Overcast,300,2013-12-15 15:35:00
9:55 AM,14.0,5.0,67,30.16,10.0,WNW,9.2,-,N/A,,Overcast,300,2013-12-15 15:55:00
10:15 AM,14.0,5.0,67,30.15,10.0,West,8.1,15.0,N/A,,Overcast,280,2013-12-15 16:15:00
10:35 AM,14.0,5.0,67,30.14,10.0,WNW,11.5,-,N/A,,Overcast,290,2013-12-15 16:35:00
10:55 AM,14.0,5.0,67,30.14,10.0,West,10.4,-,N/A,,Overcast,270,2013-12-15 16:55:00
11:15 AM,15.8,5.0,62,30.14,10.0,WNW,8.1,-,N/A,,Overcast,290,2013-12-15 17:15:00
11:35 AM,15.8,5.0,62,30.13,10.0,WNW,9.2,-,N/A,,Overcast,300,2013-12-15 17:35:00
11:55 AM,15.8,6.8,68,30.13,10.0,NW,10.4,-,N/A,,Overcast,310,2013-12-15 17:55:00
12:15 PM,15.8,5.0,62,30.12,10.0,WNW,9.2,-,N/A,,Overcast,290,2013-12-15 18:15:00
12:35 PM,15.8,6.8,68,30.11,10.0,West,9.2,-,N/A,,Overcast,280,2013-12-15 18:35:00
12:55 PM,15.8,6.8,68,30.10,10.0,NW,4.6,-,N/A,,Overcast,320,2013-12-15 18:55:00
1:15 PM,15.8,6.8,68,30.10,10.0,NW,6.9,-,N/A,,Overcast,310,2013-12-15 19:15:00
1:35 PM,17.6,6.8,63,30.10,10.0,West,5.8,-,N/A,,Overcast,280,2013-12-15 19:35:00
1:55 PM,17.6,6.8,63,30.11,10.0,WNW,8.1,-,N/A,,Overcast,300,2013-12-15 19:55:00
2:15 PM,17.6,6.8,63,30.10,10.0,NW,6.9,-,N/A,,Mostly Cloudy,320,2013-12-15 20:15:00
2:35 PM,17.6,6.8,63,30.10,10.0,NW,6.9,-,N/A,,Partly Cloudy,310,2013-12-15 20:35:00
2:55 PM,17.6,6.8,63,30.11,10.0,NW,8.1,-,N/A,,Partly Cloudy,320,2013-12-15 20:55:00
3:15 PM,17.6,6.8,63,30.10,10.0,NW,8.1,-,N/A,Snow,Light Snow,320,2013-12-15 21:15:00
3:35 PM,17.6,6.8,63,30.11,10.0,WNW,6.9,-,N/A,,Overcast,300,2013-12-15 21:35:00
3:55 PM,17.6,6.8,63,30.11,10.0,NW,5.8,-,N/A,,Overcast,320,2013-12-15 21:55:00
4:15 PM,17.6,8.6,68,30.11,9.0,NW,5.8,-,N/A,,Overcast,320,2013-12-15 22:15:00
4:35 PM,15.8,10.4,79,30.11,2.0,NW,4.6,-,N/A,Snow,Light Snow,320,2013-12-15 22:35:00
4:55 PM,15.8,10.4,79,30.11,4.0,Calm,Calm,-,N/A,Snow,Light Snow,0,2013-12-15 22:55:00
5:15 PM,15.8,10.4,79,30.11,6.0,North,4.6,-,N/A,Snow,Light Snow,350,2013-12-15 23:15:00
5:35 PM,15.8,10.4,79,30.11,4.0,Calm,Calm,-,N/A,Snow,Light Snow,0,2013-12-15 23:35:00
5:55 PM,15.8,10.4,79,30.11,7.0,Calm,Calm,-,N/A,Snow,Light Snow,0,2013-12-15 23:55:00
6:15 PM,15.8,10.4,79,30.11,9.0,Calm,Calm,-,N/A,Snow,Light Snow,0,2013-12-16 00:15:00
6:35 PM,15.8,10.4,79,30.11,10.0,Calm,Calm,-,N/A,Snow,Light Snow,0,2013-12-16 00:35:00
6:55 PM,15.8,10.4,79,30.11,10.0,Calm,Calm,-,N/A,Snow,Light Snow,0,2013-12-16 00:55:00
7:15 PM,15.8,10.4,79,30.12,8.0,NNE,5.8,-,N/A,Snow,Light Snow,20,2013-12-16 01:15:00
7:35 PM,15.8,10.4,79,30.13,4.0,NNE,5.8,-,N/A,Snow,Light Snow,30,2013-12-16 01:35:00
7:55 PM,15.8,12.2,86,30.13,3.0,NNE,4.6,-,N/A,Snow,Light Snow,20,2013-12-16 01:55:00
8:15 PM,15.8,12.2,86,30.12,5.0,NE,5.8,-,N/A,Snow,Light Snow,40,2013-12-16 02:15:00
8:35 PM,15.8,12.2,86,30.13,8.0,Calm,Calm,-,N/A,Snow,Light Snow,0,2013-12-16 02:35:00
8:55 PM,15.8,12.2,86,30.13,3.0,Calm,Calm,-,N/A,Snow,Light Snow,0,2013-12-16 02:55:00
9:15 PM,15.8,12.2,86,30.14,1.8,Calm,Calm,-,N/A,Snow,Light Snow,0,2013-12-16 03:15:00
9:35 PM,15.8,12.2,86,30.14,3.0,Calm,Calm,-,N/A,Snow,Light Snow,0,2013-12-16 03:35:00
9:55 PM,15.8,12.2,86,30.14,4.0,Calm,Calm,-,N/A,Snow,Light Snow,0,2013-12-16 03:55:00
10:15 PM,15.8,12.2,86,30.13,5.0,NE,3.5,-,N/A,Snow,Light Snow,50,2013-12-16 04:15:00
10:35 PM,15.8,12.2,86,30.12,5.0,NE,5.8,-,N/A,Snow,Light Snow,50,2013-12-16 04:35:00
10:55 PM,15.8,12.2,86,30.12,5.0,NE,5.8,-,N/A,Snow,Light Snow,50,2013-12-16 04:55:00
11:15 PM,15.8,12.2,86,30.12,4.0,NE,8.1,-,N/A,Snow,Light Snow,50,2013-12-16 05:15:00
11:35 PM,15.8,12.2,86,30.13,5.0,NNE,10.4,-,N/A,Snow,Light Snow,30,2013-12-16 05:35:00
11:55 PM,15.8,12.2,86,30.11,7.0,NE,12.7,-,N/A,Snow,Light Snow,40,2013-12-16 05:55:00